SCP
0 0 0 -0 -0 -0 -0 -0 0 0 0 0 0 0 0 0 -0 -0 0 0 0 -0 -0 -0 -0 -0 -0 0 0 0 0 0
0 0 0 0 0 0 0 0 0 0 0 0 0 0 0 0 -0 -0 0 -0 -0 -0 -0 -0 -0 -0 -0 0 0 0 0 0
0 0 0 0 0 0 0 0 0 0 -0 0 0 0 0 0 0 0 0 0 0 -0 -0 -0 -0 -0 0 0 0 0 1 0
0 0 0 0 -0 -0 -0 0 0 0 0 0 0 0 0 0 0 0 0 0 0 0 -0 -0 -0 -0 0 0 0 0 0 0
0 0 0 0 0 0 0 0 0 -0 0 0 0 0 0 0 0 0 0 0 0 0 0 0 0 0 0 0 0 0 0 0
0 0 0 0 0 -0 0 0 0 0 0 0 0 0 0 0 0 0 1 0 0 0 0 0 0 0 0 0 0 0 0 0
0 0 0 0 0 0 0 0 0 0 0 0 0 0 0 0 0 1 1 1 0 0 0 0 0 0 0 0 0 0 0 1
0 0 0 0 0 0 0 0 0 0 0 0 0 0 0 0 0 1 1 1 0 0 0 0 0 0 0 0 0 0 0 0
0 0 0 0 0 0 0 0 0 0 0 0 0 0 0 0 0 0 1 2 1 1 0 0 0 0 0 0 0 0 0 0
0 0 0 0 0 0 0 0 0 0 0 0 0 0 0 0 0 0 0 1 1 1 0 0 0 0 0 0 0 0 0 0
0 0 0 0 0 0 0 0 0 -0 -0 0 0 0 0 0 0 0 0 0 1 1 0 0 0 0 0 0 0 0 0 0
0 0 0 0 0 0 0 0 0 0 -0 -0 -0 0 0 0 0 0 0 0 1 2 1 0 0 0 1 1 1 0 0 0
0 0 0 0 0 0 0 0 0 0 0 -0 0 -0 0 0 0 0 0 0 2 2 2 1 1 1 2 3 1 1 1 1
0 0 0 0 0 -0 0 0 0 0 0 0 0 0 -0 0 0 0 0 0 1 2 2 2 1 1 1 2 2 1 1 2
0 0 0 0 0 0 0 0 0 0 0 0 0 0 0 0 0 0 0 0 0 2 2 2 2 2 3 2 2 1 1 1
0 0 0 0 0 0 0 0 0 0 0 0 0 0 0 0 0 0 0 0 1 2 4 4 3 3 3 3 2 1 2 2
0 0 0 0 0 0 0 0 0 0 0 0 0 0 0 0 0 0 1 1 1 2 2 4 4 3 2 1 1 1 1 2
0 0 0 0 0 0 0 0 0 0 0 0 0 0 0 0 0 0 1 1 1 0 2 2 2 2 1 1 1 1 2 2
0 0 0 0 0 0 -0 0 -0 0 0 0 0 0 0 0 0 0 1 2 2 2 2 2 2 3 2 1 2 3 3 3
0 0 0 0 0 0 0 0 0 0 0 0 0 0 0 0 0 0 1 1 1 1 0 0 0 2 2 2 2 2 3 5
Wind_Speed_500mb
7 8 16 12 10 23 44 63 34 12 10 6 20 39 91 56 59 68 64 61 55 51 47 42 38 36 35 34 32 30 27 24
0 20 27 36 36 36 34 29 19 24 8 3 31 72 71 71 63 70 62 57 52 49 45 40 36 33 33 32 31 29 27 24
8 23 29 32 42 49 27 28 8 25 11 19 34 58 70 73 65 74 63 57 52 49 44 40 35 32 31 31 30 29 27 27
13 29 32 24 44 44 43 38 27 15 14 11 45 60 82 69 64 68 69 62 55 49 44 39 35 32 31 31 32 31 30 31
18 28 33 34 36 21 29 37 16 29 6 14 48 53 71 65 62 64 62 64 59 54 49 43 37 34 33 33 33 34 35 36
22 24 38 37 27 34 35 40 58 42 5 7 27 59 67 62 55 53 56 59 59 55 51 47 42 38 36 35 36 36 38 41
28 27 25 49 20 43 45 28 46 35 26 19 35 45 56 61 71 69 55 53 54 53 51 48 43 39 37 35 38 41 42 46
23 28 30 33 41 47 28 36 46 52 2 8 13 20 25 62 69 78 66 53 51 49 48 46 45 42 39 38 39 42 44 47
38 55 54 42 40 51 14 20 44 35 56 20 23 23 32 26 63 79 69 58 51 48 42 42 43 41 40 37 33 38 40 49
49 65 65 45 55 44 44 33 62 62 59 61 45 43 36 47 48 35 73 61 54 47 42 38 39 37 34 30 29 31 29 33
55 64 66 69 52 41 57 50 53 67 61 58 62 43 45 43 36 20 74 67 64 54 51 47 42 40 38 34 32 29 32 35
54 58 56 42 47 56 68 63 54 63 61 61 51 30 19 40 34 32 11 40 77 69 59 46 41 37 37 36 34 34 35 43
34 38 39 35 30 47 72 69 65 52 64 64 59 54 46 55 49 47 40 15 22 72 62 50 41 34 37 39 34 38 37 46
5 16 35 30 46 48 49 60 66 66 63 74 73 71 65 48 66 60 54 51 25 45 55 43 40 36 39 42 36 42 51 56
33 19 21 18 39 49 66 58 47 62 67 70 82 67 73 65 53 60 59 55 47 43 47 42 39 37 42 43 42 40 41 47
30 10 16 22 35 37 43 62 65 57 68 71 76 86 82 75 66 63 60 65 60 54 43 37 41 48 47 48 47 43 49 53
31 25 30 26 30 41 37 47 44 67 66 67 82 86 80 96 73 75 75 76 74 67 57 51 53 56 54 56 52 53 62 57
29 21 29 24 39 40 36 38 54 61 62 71 83 85 75 88 98 88 80 82 79 75 75 73 71 71 67 63 62 57 56 52
30 25 30 20 31 47 51 46 54 68 68 67 78 88 84 84 85 95 76 86 87 84 78 69 65 58 62 67 65 60 50 50
31 18 19 12 31 22 36 50 42 57 65 69 70 74 99 98 95 65 70 68 80 69 67 67 64 62 63 70 68 63 57 49
Wind_Direction_500mb
170 210 231 255 293 292 299 307 109 103 82 25 135 135 152 165 169 172 167 157 159 165 169 173 175 179 183 184 188 189 188 188
215 259 261 243 276 291 303 323 101 103 69 94 140 146 164 166 168 173 169 164 167 174 174 178 182 187 194 197 200 201 204 204
248 253 260 268 272 284 292 299 161 146 214 179 147 161 162 170 171 172 167 169 174 179 176 181 187 195 202 206 212 213 217 220
236 264 268 281 309 341 335 292 317 321 196 238 161 162 166 172 169 172 168 172 178 182 183 187 192 203 211 216 220 224 227 230
265 275 287 280 301 320 323 329 317 311 2 45 145 159 169 174 174 173 175 176 181 186 186 193 196 208 216 224 227 230 233 236
268 268 267 292 309 319 312 315 323 338 291 94 66 166 166 166 175 176 180 183 185 191 193 196 198 209 218 227 232 236 239 240
245 251 277 300 326 321 303 313 318 312 338 118 112 148 165 173 176 181 186 192 192 197 199 202 204 212 221 230 238 240 242 243
253 258 265 278 304 308 335 322 310 308 131 149 163 172 174 182 175 182 185 193 201 205 208 208 209 214 222 233 242 247 251 252
262 271 285 293 303 312 299 298 290 303 317 299 249 227 228 225 202 185 192 193 202 209 206 208 210 215 221 227 238 250 256 259
247 255 273 277 286 290 292 257 273 288 302 309 309 229 209 232 212 223 191 195 202 207 215 216 218 216 212 226 247 254 258 263
261 249 245 261 268 272 275 281 269 278 289 299 312 222 199 213 204 228 200 203 204 205 219 221 225 231 237 242 239 252 269 279
272 266 266 249 255 261 262 272 277 272 277 284 294 280 241 237 256 244 227 207 206 210 213 222 222 232 237 233 234 251 269 287
278 280 274 293 279 244 249 255 258 271 269 275 283 281 270 230 244 252 253 262 220 215 214 212 216 227 237 238 241 253 269 279
271 280 283 263 271 272 276 246 240 245 255 270 272 276 274 273 229 238 241 234 233 207 210 216 218 221 229 234 245 249 251 251
287 255 277 263 266 262 265 269 252 235 237 245 264 267 272 270 265 230 236 231 219 199 204 214 230 231 238 236 241 253 263 257
267 277 257 263 270 275 278 252 255 257 234 235 243 259 261 265 265 252 240 225 221 217 215 207 221 231 233 239 246 256 267 265
303 324 326 302 292 294 305 299 304 261 244 234 232 244 261 259 259 255 247 227 222 219 221 208 217 232 240 249 254 261 265 265
303 297 289 307 300 294 297 291 293 293 282 238 233 235 245 252 253 260 252 230 221 222 225 231 225 233 240 248 256 262 265 264
286 289 282 301 287 295 294 288 287 287 287 278 234 229 232 241 253 253 249 232 221 215 221 230 233 237 246 256 261 258 251 251
300 283 274 226 277 261 290 294 294 294 294 280 278 246 233 237 245 271 241 222 212 216 225 237 238 241 252 257 255 251 239 245
Wind_Speed_850mb
7 8 16 12 10 23 44 63 34 12 10 6 20 39 91 56 59 68 64 61 55 51 47 42 38 36 35 34 32 30 27 24
0 20 27 36 36 36 34 29 19 24 8 3 31 72 71 71 63 70 62 57 52 49 45 40 36 33 33 32 31 29 27 24
8 23 29 32 42 49 27 28 8 25 11 19 34 58 70 73 65 74 63 57 52 49 44 40 35 32 31 31 30 29 27 27
13 29 32 24 44 44 43 38 27 15 14 11 45 60 82 69 64 68 69 62 55 49 44 39 35 32 31 31 32 31 30 31
18 28 33 34 36 21 29 37 16 29 6 14 48 53 71 65 62 64 62 64 59 54 49 43 37 34 33 33 33 34 35 36
22 24 38 37 27 34 35 40 58 42 5 7 27 59 67 62 55 53 56 59 59 55 51 47 42 38 36 35 36 36 38 41
28 27 25 49 20 43 45 28 46 35 26 19 35 45 56 61 71 69 55 53 54 53 51 48 43 39 37 35 38 41 42 46
23 28 30 33 41 47 28 36 46 52 2 8 13 20 25 62 69 78 66 53 51 49 48 46 45 42 39 38 39 42 44 47
38 55 54 42 40 51 14 20 44 35 56 20 23 23 32 26 63 79 69 58 51 48 42 42 43 41 40 37 33 38 40 49
49 65 65 45 55 44 44 33 62 62 59 61 45 43 36 47 48 35 73 61 54 47 42 38 39 37 34 30 29 31 29 33
55 64 66 69 52 41 57 50 53 67 61 58 62 43 45 43 36 20 74 67 64 54 51 47 42 40 38 34 32 29 32 35
54 58 56 42 47 56 68 63 54 63 61 61 51 30 19 40 34 32 11 40 77 69 59 46 41 37 37 36 34 34 35 43
34 38 39 35 30 47 72 69 65 52 64 64 59 54 46 55 49 47 40 15 22 72 62 50 41 34 37 39 34 38 37 46
5 16 35 30 46 48 49 60 66 66 63 74 73 71 65 48 66 60 54 51 25 45 55 43 40 36 39 42 36 42 51 56
33 19 21 18 39 49 66 58 47 62 67 70 82 67 73 65 53 60 59 55 47 43 47 42 39 37 42 43 42 40 41 47
30 10 16 22 35 37 43 62 65 57 68 71 76 86 82 75 66 63 60 65 60 54 43 37 41 48 47 48 47 43 49 53
31 25 30 26 30 41 37 47 44 67 66 67 82 86 80 96 73 75 75 76 74 67 57 51 53 56 54 56 52 53 62 57
29 21 29 24 39 40 36 38 54 61 62 71 83 85 75 88 98 88 80 82 79 75 75 73 71 71 67 63 62 57 56 52
30 25 30 20 31 47 51 46 54 68 68 67 78 88 84 84 85 95 76 86 87 84 78 69 65 58 62 67 65 60 50 50
31 18 19 12 31 22 36 50 42 57 65 69 70 74 99 98 95 65 70 68 80 69 67 67 64 62 63 70 68 63 57 49
Wind_Direction_850mb
170 210 231 255 293 292 299 307 109 103 82 25 135 135 152 165 169 172 167 157 159 165 169 173 175 179 183 184 188 189 188 188
215 259 261 243 276 291 303 323 101 103 69 94 140 146 164 166 168 173 169 164 167 174 174 178 182 187 194 197 200 201 204 204
248 253 260 268 272 284 292 299 161 146 214 179 147 161 162 170 171 172 167 169 174 179 176 181 187 195 202 206 212 213 217 220
236 264 268 281 309 341 335 292 317 321 196 238 161 162 166 172 169 172 168 172 178 182 183 187 192 203 211 216 220 224 227 230
265 275 287 280 301 320 323 329 317 311 2 45 145 159 169 174 174 173 175 176 181 186 186 193 196 208 216 224 227 230 233 236
268 268 267 292 309 319 312 315 323 338 291 94 66 166 166 166 175 176 180 183 185 191 193 196 198 209 218 227 232 236 239 240
245 251 277 300 326 321 303 313 318 312 338 118 112 148 165 173 176 181 186 192 192 197 199 202 204 212 221 230 238 240 242 243
253 258 265 278 304 308 335 322 310 308 131 149 163 172 174 182 175 182 185 193 201 205 208 208 209 214 222 233 242 247 251 252
262 271 285 293 303 312 299 298 290 303 317 299 249 227 228 225 202 185 192 193 202 209 206 208 210 215 221 227 238 250 256 259
247 255 273 277 286 290 292 257 273 288 302 309 309 229 209 232 212 223 191 195 202 207 215 216 218 216 212 226 247 254 258 263
261 249 245 261 268 272 275 281 269 278 289 299 312 222 199 213 204 228 200 203 204 205 219 221 225 231 237 242 239 252 269 279
272 266 266 249 255 261 262 272 277 272 277 284 294 280 241 237 256 244 227 207 206 210 213 222 222 232 237 233 234 251 269 287
278 280 274 293 279 244 249 255 258 271 269 275 283 281 270 230 244 252 253 262 220 215 214 212 216 227 237 238 241 253 269 279
271 280 283 263 271 272 276 246 240 245 255 270 272 276 274 273 229 238 241 234 233 207 210 216 218 221 229 234 245 249 251 251
287 255 277 263 266 262 265 269 252 235 237 245 264 267 272 270 265 230 236 231 219 199 204 214 230 231 238 236 241 253 263 257
267 277 257 263 270 275 278 252 255 257 234 235 243 259 261 265 265 252 240 225 221 217 215 207 221 231 233 239 246 256 267 265
303 324 326 302 292 294 305 299 304 261 244 234 232 244 261 259 259 255 247 227 222 219 221 208 217 232 240 249 254 261 265 265
303 297 289 307 300 294 297 291 293 293 282 238 233 235 245 252 253 260 252 230 221 222 225 231 225 233 240 248 256 262 265 264
286 289 282 301 287 295 294 288 287 287 287 278 234 229 232 241 253 253 249 232 221 215 221 230 233 237 246 256 261 258 251 251
300 283 274 226 277 261 290 294 294 294 294 280 278 246 233 237 245 271 241 222 212 216 225 237 238 241 252 257 255 251 239 245